This is the latest recevied weather packets stored in our database for station/object DL6MAA-11. If no packets are shown the sender has not sent any weather packets the latest 10 day(s).
| Time | Temp. | Humidity | Pressure | Rain* | Wind** | Luminosity | Snow |
|---|---|---|---|---|---|---|---|
| 1777880232 | 17.22° C | 53% | 1012.8 hPa | 0 mm | - | 130 W/m² | - |
| 1777879916 | 16.67° C | 53% | 1012.8 hPa | 0 mm | - | 362 W/m² | - |
| 1777879624 | 16.67° C | 55% | 1012.8 hPa | 0 mm | - | 102 W/m² | - |
| 1777879329 | 16.67° C | 54% | 1012.8 hPa | 0 mm | - | 123 W/m² | - |
| 1777879032 | 16.67° C | 54% | 1012.8 hPa | 0 mm | - | 309 W/m² | - |
| 1777878717 | 16.67° C | 57% | 1012.7 hPa | 0 mm | - | 158 W/m² | - |
| 1777878435 | 16.67° C | 57% | 1012.7 hPa | 0 mm | - | 149 W/m² | - |
| 1777878117 | 16.67° C | 56% | 1012.7 hPa | 0 mm | - | 153 W/m² | - |
| 1777877826 | 16.67° C | 58% | 1012.6 hPa | 0 mm | - | 172 W/m² | - |
| 1777877531 | 16.11° C | 58% | 1012.6 hPa | 0 mm | - | 292 W/m² | - |
| 1777877230 | 16.11° C | 57% | 1012.6 hPa | 0 mm | - | 272 W/m² | - |
| 1777876915 | 15.56° C | 61% | 1012.8 hPa | 0 mm | - | 246 W/m² | - |
| 1777876620 | 15° C | 61% | 1012.8 hPa | 0 mm | - | 276 W/m² | - |
| 1777876314 | 15° C | 62% | 1012.8 hPa | 0 mm | - | 244 W/m² | - |
| 1777876020 | 15° C | 62% | 1012 hPa | 0 mm | - | 220 W/m² | - |
| 1777875726 | 14.44° C | 63% | 1012 hPa | 0 mm | - | 250 W/m² | - |
| 1777875425 | 14.44° C | 64% | 1012 hPa | 0 mm | - | 190 W/m² | - |
| 1777875131 | 13.89° C | 64% | 1012.8 hPa | 0 mm | - | 230 W/m² | - |
| 1777874819 | 13.89° C | 66% | 1012.8 hPa | 0 mm | - | 211 W/m² | - |
| 1777874521 | 13.33° C | 68% | 1012.8 hPa | 0 mm | - | 197 W/m² | - |
| 1777874223 | 13.33° C | 68% | 1012.9 hPa | 0 mm | - | 188 W/m² | - |
| 1777873932 | 12.78° C | 69% | 1012.9 hPa | 0 mm | - | 158 W/m² | - |
| 1777873626 | 12.78° C | 69% | 1012.9 hPa | 0 mm | - | 125 W/m² | - |
| 1777873332 | 12.22° C | 71% | 1012.2 hPa | 0 mm | - | 102 W/m² | - |
| 1777873022 | 11.67° C | 70% | 1012.2 hPa | 0 mm | - | 123 W/m² | - |
* Rain since midnight (hover to see other rain measurements)
** Current wind speed in m/s (hover to see current wind gust speed)